User: anonymous   Login
Location: Cran-Gévrier
(45.9039°N, 6.1012°E)
Time: 07:04:18
(UTC+00:00)
Language:

NOAA 19 - Orbit

View from above orbital plane
View from above orbital plane
View from above satellite
View from above satellite

Ground track
Ground track

The orbit data is extracted from the following two-line orbital elements,

1 33591U 09005A   23336.87379243  .00000321  00000-0  19681-3 0  9999
2 33591  99.0779  25.3213 0014656 126.5295 233.7228 14.12878961763507
Epoch (UTC): 02 December 2023 20:58:15
Eccentricity: 0.0014656
inclination: 99.0779°
perigee height: 839 km
apogee height: 860 km
right ascension of ascending node: 25.3213°
argument of perigee: 126.5295°
revolutions per day: 14.12878961
mean anomaly at epoch: 233.7228°
orbit number at epoch: 76350

The dashed part of the orbit path shows where the satellite is in the earth's shadow,  

DLR